Location: Newark
(51.2625°N, 13.3939°E)
Time: 11:49:26
(UTC+00:00)

Transit 2A Rocket - Pass Details

Date: 01 December 2019
Orbit: 594 x 909 km, 66.7° (Epoch: 11 December)

Event Time Altitude Azimuth Distance (km) Brightness Sun altitude
Rises 17:30:31 0° 196° (SSW) 2,999 8.4 -22.3°
Reaches altitude 10° 17:32:58 10° 189° (S) 2,047 7.4 -22.6°
Enters shadow 17:35:54 32° 162° (SSE) 1,077 5.6 -23.1°
